Weather History for Needles, CA

Change the Weather History Date:

Tuesday, December 11, 2012

  Actual Average Record
Temperature  
Mean Temperature 56 °F -  
Max Temperature 66 °F 64 °F 78 °F (1958)
Min Temperature 46 °F 42 °F 30 °F (1949)
Degree Days  
Heating Degree Days 9    
Growing Degree Days 6 (Base 50)    
Moisture  
Dew Point 23 °F    
Average Humidity 30    
Maximum Humidity 41    
Minimum Humidity 20    
Precipitation  
Precipitation 0.00 in - - ()
Sea Level Pressure  
Sea Level Pressure 30.00 in    
Wind  
Wind Speed 4 mph (WNW)    
Max Wind Speed 9 mph    
Max Gust Speed -    
Visibility 10 miles    
Events      
Averages and records for this station are not official NWS values.
T = Trace of Precipitation, MM = Missing Value Source: NWS Daily Summary

Daily Weather History Graph

Daily Weather History Graph

Search for Another Location

Airport:

Trip Planner

Search our weather history database for the weather conditions in past years. The results will help you decide how hot, cold, wet, or windy it might be!

Date:

Astronomy

Dec. 11, 2012 Rise Set
Actual Time 6:36 AM PST 4:27 PM PST
Civil Twilight 6:08 AM PST 4:55 PM PST
Nautical Twilight 5:36 AM PST 5:27 PM PST
Astronomical Twilight 5:05 AM PST 5:58 PM PST
Moon 4:38 AM PST (12/11) 3:09 PM PST (12/11)
Length of Visible Light 10h 47m
Length of Day
9h 51m
Waning Crescent, 4% of the Moon is Illuminated
Dec 11
Waning Crescent
Dec 13
New
Dec 19
First Quarter
Dec 28
Full
Jan 4
Last Quarter

Hourly Weather History & Observations

Time (PST) Temp. Windchill Dew Point Humidity Pressure Visibility Wind Dir Wind Speed Gust Speed Precip Events Conditions
12:56 AM 50.0 °F - 21.0 °F 32% 30.06 in 10.0 mi Calm Calm - N/A   Clear
1:56 AM 48.9 °F - 21.0 °F 33% 30.05 in 10.0 mi WNW 5.8 mph - N/A   Clear
2:56 AM 48.9 °F - 21.9 °F 35% 30.05 in 10.0 mi WNW 5.8 mph - N/A   Clear
3:56 AM 50.0 °F - 21.9 °F 33% 30.05 in 10.0 mi NW 5.8 mph - N/A   Clear
4:56 AM 48.0 °F - 23.0 °F 37% 30.05 in 10.0 mi West 5.8 mph - N/A   Clear
5:56 AM 46.9 °F - 24.1 °F 41% 30.06 in 10.0 mi NW 3.5 mph - N/A   Clear
6:56 AM 46.0 °F 43.1 °F 23.0 °F 40% 30.07 in 10.0 mi WNW 5.8 mph - N/A   Clear
7:56 AM 52.0 °F - 24.1 °F 34% 30.08 in 10.0 mi Calm Calm - N/A   Clear
8:56 AM 55.0 °F - 25.0 °F 31% 30.09 in 10.0 mi North 5.8 mph - N/A   Clear
9:56 AM 57.0 °F - 24.1 °F 28% 30.09 in 10.0 mi North 5.8 mph - N/A   Clear
10:56 AM 60.1 °F - 23.0 °F 24% 30.06 in 10.0 mi Calm Calm - N/A   Clear
11:56 AM 63.0 °F - 24.1 °F 23% 30.02 in 10.0 mi North 6.9 mph - N/A   Clear
12:56 PM 63.0 °F - 25.0 °F 24% 29.99 in 10.0 mi Calm Calm - N/A   Clear
1:56 PM 64.0 °F - 24.1 °F 22% 29.96 in 10.0 mi Calm Calm - N/A   Clear
2:56 PM 66.0 °F - 24.1 °F 20% 29.95 in 10.0 mi Calm Calm - N/A   Clear
3:56 PM 64.9 °F - 24.1 °F 21% 29.93 in 10.0 mi SE 3.5 mph - N/A   Clear
4:56 PM 60.1 °F - 24.1 °F 25% 29.93 in 10.0 mi Calm Calm - N/A   Clear
5:56 PM 54.0 °F - 21.9 °F 29% 29.94 in 10.0 mi WSW 5.8 mph - N/A   Clear
6:56 PM 52.0 °F - 21.0 °F 30% 29.95 in 10.0 mi WSW 4.6 mph - N/A   Clear
7:56 PM 52.0 °F - 21.0 °F 30% 29.95 in 10.0 mi West 6.9 mph - N/A   Clear
8:56 PM 52.0 °F - 21.9 °F 31% 29.94 in 10.0 mi West 9.2 mph - N/A   Clear
9:56 PM 50.0 °F - 21.9 °F 33% 29.94 in 10.0 mi WNW 5.8 mph - N/A   Clear
10:56 PM 50.0 °F - 21.9 °F 33% 29.94 in 10.0 mi WNW 6.9 mph - N/A   Clear
11:56 PM 48.9 °F - 21.9 °F 35% 29.92 in 10.0 mi SW 4.6 mph - N/A   Clear